Voltar ao catálogo

SL-14 DEB

AtivoPO
NORAD 45654·DEBRIS·🇷🇺 Russia

Lançado Aug 15, 1991 de Plesetsk Cosmodrome

Loading…

Próximas Passagens (próximas 24 horas)

TLE

AtualizadoSource: Space-Track

Época: Sep 13, 2026, 10:24 UTC

1 45654U 91056CY  26256.43343634  .00000421  00000-0  95777-3 0  9991
2 45654  82.5707  65.4047 0029322 170.5672 189.6011 13.23865526316251

Acompanhe SL-14 DEB em tempo real com AllMySat

Download on the App Store